| time (UTC) | temp F | wind direction | speed MPH | gust MPH | rain 1hr in | rain 24hr in | rain mn in | humidity % | barometer mb |
| 20260505124559 | 29 | 94 | 0.0 | 2.0 | 0.00 | 0.28 | 0.05 | 95 | 1014.5 |
| 20260505124053 | 29 | 84 | 0.0 | 1.0 | 0.00 | 0.28 | 0.05 | 95 | 1014.4 |
| 20260505123555 | 29 | 85 | 0.0 | 1.0 | 0.00 | 0.28 | 0.05 | 95 | 1014.5 |
| 20260505123057 | 29 | 68 | 0.0 | 2.0 | 0.00 | 0.28 | 0.05 | 95 | 1014.6 |
| 20260505122551 | 29 | 338 | 0.0 | 2.0 | 0.00 | 0.28 | 0.05 | 95 | 1014.5 |
| 20260505122051 | 29 | 47 | 1.0 | 2.0 | 0.00 | 0.28 | 0.05 | 95 | 1014.4 |
| 20260505121550 | 29 | 75 | 0.0 | 2.0 | 0.00 | 0.28 | 0.05 | 95 | 1014.5 |
| 20260505121051 | 29 | 77 | 0.0 | 3.0 | 0.00 | 0.28 | 0.05 | 95 | 1014.4 |
| 20260505120550 | 29 | 58 | 1.0 | 4.0 | 0.00 | 0.28 | 0.05 | 95 | 1014.4 |
| 20260505120101 | 29 | 64 | 1.0 | 4.0 | 0.00 | 0.28 | 0.05 | 95 | 1014.5 |
| 20260505115551 | 30 | 91 | 2.0 | 4.0 | 0.00 | 0.28 | 0.05 | 95 | 1014.4 |
| 20260505115050 | 30 | 86 | 1.0 | 2.0 | 0.00 | 0.28 | 0.05 | 95 | 1014.3 |
| 20260505114548 | 30 | 60 | 0.0 | 2.0 | 0.00 | 0.28 | 0.05 | 95 | 1014.2 |
| 20260505114049 | 30 | 140 | 0.0 | 2.0 | 0.00 | 0.28 | 0.05 | 95 | 1014.2 |
| 20260505113548 | 30 | 91 | 0.0 | 1.0 | 0.00 | 0.28 | 0.05 | 95 | 1014.3 |
| 20260505113106 | 30 | 84 | 0.0 | 2.0 | 0.00 | 0.28 | 0.05 | 95 | 1014.3 |
| 20260505112546 | 30 | 66 | 0.0 | 3.0 | 0.00 | 0.28 | 0.05 | 95 | 1014.4 |
| 20260505112046 | 30 | 70 | 1.0 | 3.0 | 0.00 | 0.28 | 0.05 | 95 | 1014.3 |
| 20260505111546 | 30 | 82 | 2.0 | 4.0 | 0.00 | 0.28 | 0.05 | 95 | 1014.2 |
| 20260505111048 | 30 | 88 | 2.0 | 5.0 | 0.00 | 0.28 | 0.05 | 95 | 1014.2 |
| 20260505110546 | 30 | 97 | 2.0 | 5.0 | 0.00 | 0.28 | 0.05 | 95 | 1014.3 |
| 20260505102039 | 32 | 79 | 0.0 | 5.0 | 0.01 | 0.28 | 0.05 | 95 | 1014.1 |
| 20260505101536 | 32 | 140 | 1.0 | 5.0 | 0.02 | 0.28 | 0.05 | 95 | 1014.0 |
| 20260505101039 | 32 | 56 | 3.0 | 7.0 | 0.02 | 0.28 | 0.05 | 95 | 1014.1 |
| 20260505100536 | 32 | 68 | 3.0 | 8.0 | 0.02 | 0.28 | 0.05 | 95 | 1014.0 |
| 20260505100033 | 33 | 61 | 2.0 | 6.0 | 0.02 | 0.28 | 0.05 | 95 | 1014.0 |
| 20260505095531 | 33 | 51 | 2.0 | 7.0 | 0.02 | 0.28 | 0.05 | 95 | 1013.9 |
| 20260505095033 | 34 | 37 | 0.0 | 4.0 | 0.02 | 0.28 | 0.05 | 95 | 1013.7 |
| 20260505094534 | 34 | 58 | 0.0 | 4.0 | 0.02 | 0.28 | 0.05 | 95 | 1013.7 |
| 20260505094030 | 35 | 51 | 0.0 | 2.0 | 0.02 | 0.28 | 0.05 | 95 | 1013.6 |
| 20260505093530 | 35 | 64 | 0.0 | 6.0 | 0.02 | 0.28 | 0.04 | 95 | 1013.7 |
| 20260505093029 | 35 | 78 | 2.0 | 6.0 | 0.02 | 0.28 | 0.04 | 96 | 1013.6 |
| 20260505092529 | 35 | 94 | 1.0 | 4.0 | 0.02 | 0.28 | 0.04 | 96 | 1013.4 |
| 20260505092028 | 35 | 75 | 1.0 | 2.0 | 0.02 | 0.28 | 0.04 | 96 | 1013.4 |
| 20260505091526 | 35 | 94 | 0.0 | 1.0 | 0.01 | 0.27 | 0.03 | 96 | 1013.5 |
| 20260505091027 | 35 | 142 | 0.0 | 0.0 | 0.01 | 0.27 | 0.03 | 96 | 1013.6 |
| 20260505090526 | 35 | 148 | 0.0 | 0.0 | 0.01 | 0.27 | 0.03 | 96 | 1013.5 |
| 20260505090025 | 35 | 278 | 0.0 | 0.0 | 0.01 | 0.27 | 0.03 | 96 | 1013.5 |
| 20260505085526 | 35 | 278 | 0.0 | 0.0 | 0.01 | 0.27 | 0.03 | 96 | 1013.6 |
| 20260505085025 | 35 | 278 | 0.0 | 0.0 | 0.03 | 0.27 | 0.03 | 96 | 1013.6 |
| 20260505084541 | 34 | 278 | 0.0 | 0.0 | 0.03 | 0.27 | 0.03 | 96 | 1013.8 |
| 20260505084022 | 34 | 278 | 0.0 | 0.0 | 0.02 | 0.26 | 0.02 | 96 | 1013.8 |
| 20260505083522 | 34 | 278 | 0.0 | 0.0 | 0.02 | 0.26 | 0.02 | 96 | 1013.8 |
| 20260505083021 | 34 | 304 | 0.0 | 0.0 | 0.02 | 0.26 | 0.02 | 96 | 1013.9 |
| 20260505082521 | 34 | 304 | 0.0 | 0.0 | 0.02 | 0.26 | 0.02 | 95 | 1013.9 |
| 20260505082020 | 34 | 304 | 0.0 | 0.0 | 0.02 | 0.26 | 0.02 | 95 | 1014.0 |
| 20260505081520 | 34 | 304 | 0.0 | 1.0 | 0.02 | 0.26 | 0.02 | 95 | 1014.0 |
| 20260505081020 | 34 | 304 | 0.0 | 2.0 | 0.02 | 0.26 | 0.02 | 95 | 1014.3 |
| 20260505080519 | 34 | 309 | 0.0 | 1.0 | 0.02 | 0.26 | 0.02 | 96 | 1014.3 |
| 20260505080020 | 34 | 276 | 0.0 | 1.0 | 0.02 | 0.26 | 0.02 | 96 | 1014.2 |
| 20260505075518 | 34 | 275 | 0.0 | 1.0 | 0.02 | 0.26 | 0.02 | 96 | 1014.2 |
| 20260505075017 | 34 | 276 | 0.0 | 0.0 | 0.00 | 0.24 | 0.00 | 95 | 1014.1 |
| 20260505074517 | 34 | 276 | 0.0 | 1.0 | 0.00 | 0.24 | 0.00 | 95 | 1014.3 |
| 20260505074017 | 34 | 276 | 0.0 | 1.0 | 0.00 | 0.24 | 0.00 | 95 | 1014.4 |
| 20260505073517 | 34 | 275 | 0.0 | 0.0 | 0.00 | 0.24 | 0.00 | 95 | 1014.5 |
| 20260505073016 | 34 | 276 | 0.0 | 2.0 | 0.00 | 0.24 | 0.00 | 95 | 1014.5 |
| 20260505072517 | 34 | 276 | 0.0 | 2.0 | 0.00 | 0.24 | 0.00 | 95 | 1014.5 |
| 20260505072019 | 34 | 280 | 0.0 | 1.0 | 0.00 | 0.24 | 0.00 | 95 | 1014.5 |
| 20260505071518 | 34 | 285 | 0.0 | 0.0 | 0.00 | 0.24 | 0.00 | 95 | 1014.5 |
| 20260505071015 | 34 | 302 | 0.0 | 0.0 | 0.00 | 0.24 | 0.00 | 95 | 1014.6 |
| 20260505070517 | 33 | 270 | 0.0 | 0.0 | 0.00 | 0.24 | 0.00 | 95 | 1014.7 |
| 20260505070014 | 33 | 270 | 0.0 | 0.0 | 0.00 | 0.24 | 0.00 | 95 | 1014.6 |
| 20260505065516 | 33 | 271 | 0.0 | 0.0 | 0.00 | 0.24 | 0.00 | 95 | 1014.6 |
| 20260505065012 | 33 | 276 | 0.0 | 0.0 | 0.00 | 0.24 | 0.00 | 95 | 1014.5 |
| 20260505064512 | 33 | 276 | 0.0 | 0.0 | 0.00 | 0.24 | 0.00 | 95 | 1014.5 |
| 20260505064017 | 33 | 276 | 0.0 | 0.0 | 0.00 | 0.24 | 0.00 | 95 | 1014.5 |
| 20260505063512 | 33 | 274 | 0.0 | 0.0 | 0.00 | 0.24 | 0.00 | 95 | 1014.6 |
| 20260505063011 | 33 | 276 | 0.0 | 0.0 | 0.00 | 0.24 | 0.00 | 95 | 1014.6 |
| 20260505062511 | 33 | 294 | 0.0 | 0.0 | 0.00 | 0.24 | 0.00 | 95 | 1014.5 |
| 20260505062010 | 33 | 294 | 0.0 | 0.0 | 0.00 | 0.24 | 0.00 | 95 | 1014.5 |
| 20260505061512 | 33 | 294 | 0.0 | 0.0 | 0.00 | 0.24 | 0.00 | 95 | 1014.2 |
| 20260505061009 | 33 | 293 | 0.0 | 0.0 | 0.00 | 0.24 | 0.00 | 95 | 1014.2 |
| 20260505060508 | 33 | 295 | 0.0 | 0.0 | 0.00 | 0.24 | 0.00 | 95 | 1014.2 |
| 20260505060009 | 33 | 297 | 0.0 | 2.0 | 0.00 | 0.24 | 0.24 | 95 | 1014.2 |
| 20260505055507 | 33 | 255 | 0.0 | 3.0 | 0.00 | 0.24 | 0.24 | 95 | 1014.1 |
| 20260505055007 | 33 | 292 | 0.0 | 3.0 | 0.00 | 0.24 | 0.24 | 95 | 1014.2 |
| 20260505054507 | 33 | 292 | 0.0 | 2.0 | 0.00 | 0.24 | 0.24 | 95 | 1014.1 |
| 20260505054010 | 33 | 308 | 0.0 | 2.0 | 0.00 | 0.24 | 0.24 | 95 | 1014.1 |
| 20260505053507 | 33 | 238 | 0.0 | 0.0 | 0.00 | 0.24 | 0.24 | 95 | 1014.0 |
| 20260505053006 | 33 | 218 | 0.0 | 0.0 | 0.00 | 0.24 | 0.24 | 95 | 1013.9 |
| 20260505052505 | 33 | 329 | 0.0 | 0.0 | 0.00 | 0.24 | 0.24 | 95 | 1014.0 |
| 20260505052005 | 33 | 329 | 0.0 | 0.0 | 0.00 | 0.24 | 0.24 | 95 | 1013.9 |
| 20260505051508 | 33 | 304 | 0.0 | 0.0 | 0.00 | 0.24 | 0.24 | 95 | 1013.9 |
| 20260505051006 | 33 | 269 | 0.0 | 0.0 | 0.00 | 0.24 | 0.24 | 94 | 1013.9 |
| 20260505050506 | 33 | 267 | 0.0 | 0.0 | 0.00 | 0.24 | 0.24 | 95 | 1013.8 |
| 20260505041504 | 33 | 295 | 0.0 | 0.0 | 0.01 | 0.24 | 0.24 | 94 | 1014.0 |
| 20260505041003 | 33 | 295 | 0.0 | 0.0 | 0.01 | 0.24 | 0.24 | 94 | 1014.1 |
| 20260505040503 | 33 | 295 | 0.0 | 0.0 | 0.01 | 0.24 | 0.24 | 94 | 1014.4 |
| 20260505040003 | 33 | 295 | 0.0 | 0.0 | 0.02 | 0.24 | 0.24 | 94 | 1014.5 |
| 20260505035501 | 33 | 295 | 0.0 | 0.0 | 0.02 | 0.24 | 0.24 | 93 | 1014.5 |
| 20260505035001 | 33 | 295 | 0.0 | 0.0 | 0.03 | 0.24 | 0.24 | 93 | 1014.3 |
| 20260505034502 | 33 | 295 | 0.0 | 0.0 | 0.03 | 0.24 | 0.24 | 93 | 1014.3 |
| 20260505034003 | 33 | 295 | 0.0 | 0.0 | 0.03 | 0.24 | 0.24 | 93 | 1014.2 |
| 20260505033505 | 34 | 295 | 0.0 | 0.0 | 0.03 | 0.24 | 0.24 | 93 | 1014.1 |
| 20260505033002 | 34 | 295 | 0.0 | 0.0 | 0.03 | 0.24 | 0.24 | 93 | 1014.2 |
| 20260505032501 | 34 | 295 | 0.0 | 0.0 | 0.04 | 0.24 | 0.24 | 93 | 1014.4 |
| 20260505032002 | 34 | 300 | 0.0 | 0.0 | 0.03 | 0.23 | 0.23 | 93 | 1014.2 |
| 20260505031501 | 34 | 299 | 0.0 | 0.0 | 0.04 | 0.23 | 0.23 | 93 | 1014.1 |
| 20260505031001 | 34 | 300 | 0.0 | 0.0 | 0.06 | 0.23 | 0.23 | 93 | 1013.9 |
| 20260505030501 | 34 | 300 | 0.0 | 0.0 | 0.09 | 0.23 | 0.23 | 93 | 1013.9 |
| 20260505025600 | 33 | 290 | 0.0 | 0.0 | 0.12 | 0.22 | 0.22 | 92 | 1014.0 |
| 20260505025059 | 34 | 150 | 0.0 | 0.0 | 0.14 | 0.21 | 0.21 | 92 | 1013.8 |
| 20260505024559 | 34 | 152 | 0.0 | 0.0 | 0.17 | 0.21 | 0.21 | 91 | 1013.9 |
| 20260505024059 | 34 | 152 | 0.0 | 1.0 | 0.18 | 0.21 | 0.21 | 91 | 1013.8 |
| 20260505023601 | 35 | 108 | 0.0 | 1.0 | 0.19 | 0.21 | 0.21 | 91 | 1013.6 |
| 20260505023102 | 35 | 160 | 0.0 | 1.0 | 0.19 | 0.21 | 0.21 | 91 | 1013.6 |
| 20260505022558 | 35 | 141 | 0.0 | 1.0 | 0.18 | 0.20 | 0.20 | 90 | 1013.6 |
| 20260505022058 | 35 | 91 | 0.0 | 1.0 | 0.18 | 0.20 | 0.20 | 90 | 1013.6 |
| 20260505021600 | 36 | 252 | 0.0 | 2.0 | 0.17 | 0.19 | 0.19 | 89 | 1013.7 |
| 20260505021057 | 36 | 295 | 0.0 | 6.0 | 0.15 | 0.17 | 0.17 | 88 | 1013.6 |
| 20260505020558 | 37 | 304 | 3.0 | 6.0 | 0.12 | 0.14 | 0.14 | 87 | 1013.6 |
| 20260505020059 | 38 | 280 | 2.0 | 7.0 | 0.11 | 0.12 | 0.12 | 86 | 1013.5 |
| 20260505015555 | 39 | 309 | 2.0 | 12.0 | 0.09 | 0.10 | 0.10 | 86 | 1013.4 |
| 20260505015054 | 40 | 328 | 7.0 | 12.0 | 0.06 | 0.07 | 0.07 | 82 | 1013.3 |
| 20260505014554 | 41 | 333 | 1.0 | 3.0 | 0.03 | 0.04 | 0.04 | 84 | 1012.8 |
| 20260505014053 | 41 | 142 | 0.0 | 2.0 | 0.02 | 0.03 | 0.03 | 83 | 1012.4 |
| 20260505013552 | 41 | 48 | 1.0 | 3.0 | 0.01 | 0.02 | 0.02 | 82 | 1012.3 |
| 20260505013052 | 42 | 329 | 0.0 | 2.0 | 0.01 | 0.02 | 0.02 | 82 | 1012.3 |
| 20260505012552 | 42 | 41 | 0.0 | 1.0 | 0.01 | 0.02 | 0.02 | 80 | 1012.2 |
| 20260505012052 | 42 | 49 | 0.0 | 2.0 | 0.01 | 0.02 | 0.02 | 79 | 1012.0 |
| 20260505011608 | 42 | 49 | 0.0 | 4.0 | 0.01 | 0.02 | 0.02 | 78 | 1012.1 |
| 20260505011051 | 43 | 95 | 0.0 | 2.0 | 0.01 | 0.02 | 0.02 | 77 | 1012.2 |
| 20260505010551 | 43 | 27 | 0.0 | 5.0 | 0.00 | 0.01 | 0.01 | 75 | 1012.0 |
| 20260505010051 | 44 | 47 | 3.0 | 6.0 | 0.00 | 0.01 | 0.01 | 74 | 1012.0 |
| 20260505005551 | 44 | 6 | 1.0 | 4.0 | 0.00 | 0.01 | 0.01 | 73 | 1012.2 |
| 20260505005051 | 45 | 77 | 1.0 | 5.0 | 0.00 | 0.01 | 0.01 | 70 | 1011.9 |
| 20260505004555 | 45 | 54 | 2.0 | 8.0 | 0.00 | 0.01 | 0.01 | 70 | 1012.0 |
| 20260505004152 | 45 | 41 | 6.0 | 9.0 | 0.00 | 0.01 | 0.01 | 69 | 1012.0 |
| 20260505003549 | 46 | 82 | 5.0 | 10.0 | 0.00 | 0.01 | 0.01 | 65 | 1012.0 |
| 20260505003053 | 47 | 67 | 5.0 | 11.0 | 0.00 | 0.01 | 0.01 | 66 | 1011.7 |
| 20260505002549 | 47 | 98 | 6.0 | 11.0 | 0.00 | 0.01 | 0.01 | 64 | 1011.7 |
| 20260505002050 | 48 | 89 | 4.0 | 10.0 | 0.00 | 0.01 | 0.01 | 61 | 1011.6 |
| 20260505001604 | 48 | 82 | 4.0 | 10.0 | 0.00 | 0.01 | 0.01 | 59 | 1011.6 |
| 20260505001049 | 48 | 91 | 2.0 | 6.0 | 0.00 | 0.01 | 0.01 | 57 | 1011.7 |
| 20260505000549 | 48 | 308 | 2.0 | 5.0 | 0.00 | 0.01 | 0.01 | 57 | 1011.5 |
| 20260505000104 | 49 | 271 | 2.0 | 5.0 | 0.00 | 0.01 | 0.01 | 57 | 1011.6 |
| 20260504235548 | 49 | 240 | 1.0 | 5.0 | 0.00 | 0.01 | 0.01 | 57 | 1011.5 |
| 20260504235051 | 48 | 212 | 2.0 | 10.0 | 0.00 | 0.01 | 0.01 | 57 | 1011.6 |
| 20260504234550 | 48 | 270 | 4.0 | 11.0 | 0.00 | 0.01 | 0.01 | 57 | 1011.6 |
| 20260504234047 | 49 | 242 | 6.0 | 11.0 | 0.00 | 0.01 | 0.01 | 57 | 1011.8 |
| 20260504233547 | 48 | 283 | 4.0 | 9.0 | 0.00 | 0.01 | 0.01 | 58 | 1011.6 |
| 20260504233102 | 48 | 302 | 4.0 | 12.0 | 0.00 | 0.01 | 0.01 | 59 | 1011.5 |
| 20260504232547 | 47 | 279 | 6.0 | 12.0 | 0.00 | 0.01 | 0.01 | 60 | 1011.6 |
| 20260504232049 | 46 | 158 | 5.0 | 15.0 | 0.00 | 0.01 | 0.01 | 61 | 1011.7 |
| 20260504231547 | 46 | 304 | 3.0 | 11.0 | 0.00 | 0.01 | 0.01 | 62 | 1011.9 |
| 20260504231048 | 46 | 218 | 2.0 | 11.0 | 0.00 | 0.01 | 0.01 | 63 | 1011.8 |
| 20260504230548 | 46 | 55 | 0.0 | 2.0 | 0.00 | 0.01 | 0.01 | 67 | 1011.7 |
| 20260504230046 | 46 | 82 | 0.0 | 2.0 | 0.00 | 0.01 | 0.01 | 69 | 1011.5 |
| 20260504225549 | 46 | 72 | 0.0 | 2.0 | 0.00 | 0.01 | 0.01 | 69 | 1011.2 |
| 20260504225045 | 46 | 149 | 0.0 | 4.0 | 0.01 | 0.01 | 0.01 | 68 | 1011.2 |
| 20260504224546 | 45 | 170 | 1.0 | 7.0 | 0.01 | 0.01 | 0.01 | 68 | 1011.1 |
| 20260504224045 | 45 | 239 | 1.0 | 10.0 | 0.01 | 0.01 | 0.01 | 67 | 1011.2 |
| 20260504223545 | 45 | 257 | 1.0 | 13.0 | 0.01 | 0.01 | 0.01 | 70 | 1011.5 |
| 20260504223047 | 44 | 252 | 5.0 | 13.0 | 0.01 | 0.01 | 0.01 | 71 | 1011.5 |
| 20260504222549 | 44 | 272 | 4.0 | 9.0 | 0.01 | 0.01 | 0.01 | 76 | 1011.7 |
| 20260504222047 | 44 | 281 | 3.0 | 9.0 | 0.01 | 0.01 | 0.01 | 77 | 1012.0 |
| 20260504221544 | 43 | 284 | 2.0 | 9.0 | 0.01 | 0.01 | 0.01 | 80 | 1012.1 |
| 20260504221044 | 43 | 291 | 3.0 | 9.0 | 0.01 | 0.01 | 0.01 | 79 | 1012.2 |
| 20260504220543 | 43 | 311 | 3.0 | 11.0 | 0.01 | 0.01 | 0.01 | 78 | 1012.3 |
| 20260504220042 | 44 | 260 | 5.0 | 13.0 | 0.01 | 0.01 | 0.01 | 76 | 1012.4 |
| 20260504215541 | 46 | 273 | 5.0 | 15.0 | 0.01 | 0.01 | 0.01 | 69 | 1012.6 |
| 20260504215040 | 48 | 289 | 4.0 | 16.0 | 0.00 | 0.00 | 0.00 | 57 | 1012.7 |
| 20260504214541 | 49 | 310 | 6.0 | 16.0 | 0.00 | 0.00 | 0.00 | 49 | 1012.4 |
| 20260504214040 | 49 | 249 | 2.0 | 11.0 | 0.00 | 0.00 | 0.00 | 48 | 1011.7 |
| 20260504213539 | 50 | 309 | 5.0 | 11.0 | 0.00 | 0.00 | 0.00 | 47 | 1011.0 |
| 20260504213039 | 51 | 109 | 5.0 | 13.0 | 0.00 | 0.00 | 0.00 | 43 | 1011.1 |
| 20260504212540 | 54 | 89 | 3.0 | 11.0 | 0.00 | 0.00 | 0.00 | 39 | 1011.1 |
| 20260504212040 | 55 | 142 | 7.0 | 11.0 | 0.00 | 0.00 | 0.00 | 31 | 1010.9 |
| 20260504211539 | 55 | 288 | 0.0 | 8.0 | 0.00 | 0.00 | 0.00 | 32 | 1010.7 |
| 20260504211040 | 55 | 330 | 1.0 | 8.0 | 0.00 | 0.00 | 0.00 | 33 | 1010.7 |
| 20260504210538 | 55 | 201 | 1.0 | 7.0 | 0.00 | 0.00 | 0.00 | 33 | 1010.6 |
| 20260504210038 | 55 | 162 | 2.0 | 14.0 | 0.00 | 0.00 | 0.00 | 34 | 1010.8 |
| 20260504205541 | 55 | 245 | 6.0 | 14.0 | 0.00 | 0.00 | 0.00 | 34 | 1010.8 |
| 20260504205036 | 56 | 351 | 2.0 | 11.0 | 0.00 | 0.00 | 0.00 | 34 | 1010.9 |
| 20260504204536 | 56 | 246 | 3.0 | 19.0 | 0.00 | 0.00 | 0.00 | 34 | 1010.9 |
| 20260504204036 | 56 | 300 | 4.0 | 19.0 | 0.00 | 0.00 | 0.00 | 35 | 1010.8 |
| 20260504203537 | 56 | 268 | 7.0 | 15.0 | 0.00 | 0.00 | 0.00 | 34 | 1010.9 |
| 20260504203034 | 55 | 310 | 9.0 | 15.0 | 0.00 | 0.00 | 0.00 | 35 | 1010.9 |
| 20260504202535 | 55 | 332 | 4.0 | 15.0 | 0.00 | 0.00 | 0.00 | 38 | 1011.0 |
| 20260504202034 | 54 | 308 | 5.0 | 15.0 | 0.00 | 0.00 | 0.00 | 40 | 1011.1 |
| 20260504201530 | 54 | 245 | 8.0 | 22.0 | 0.00 | 0.00 | 0.00 | 39 | 1011.3 |
| 20260504201029 | 53 | 298 | 8.0 | 14.0 | 0.00 | 0.00 | 0.00 | 41 | 1011.3 |
| 20260504200530 | 53 | 276 | 4.0 | 10.0 | 0.00 | 0.00 | 0.00 | 43 | 1011.5 |
| 20260504200029 | 52 | 322 | 6.0 | 10.0 | 0.00 | 0.00 | 0.00 | 46 | 1011.7 |
| 20260504195527 | 52 | 103 | 5.0 | 9.0 | 0.00 | 0.00 | 0.00 | 46 | 1011.8 |
| 20260504195027 | 50 | 217 | 1.0 | 10.0 | 0.00 | 0.00 | 0.00 | 51 | 1012.1 |
| 20260504194531 | 49 | 305 | 3.0 | 10.0 | 0.00 | 0.00 | 0.00 | 50 | 1012.2 |
| 20260504194026 | 49 | 293 | 2.0 | 9.0 | 0.00 | 0.00 | 0.00 | 49 | 1012.5 |
| 20260504193527 | 48 | 266 | 3.0 | 9.0 | 0.00 | 0.00 | 0.00 | 50 | 1012.5 |
| 20260504193027 | 48 | 302 | 2.0 | 12.0 | 0.00 | 0.00 | 0.00 | 50 | 1012.5 |
| 20260504192526 | 48 | 271 | 3.0 | 12.0 | 0.00 | 0.00 | 0.00 | 51 | 1012.6 |
| 20260504192026 | 48 | 146 | 3.0 | 10.0 | 0.00 | 0.00 | 0.00 | 50 | 1012.5 |
| 20260504191525 | 49 | 297 | 2.0 | 12.0 | 0.00 | 0.00 | 0.00 | 49 | 1012.6 |
| 20260504191025 | 50 | 301 | 5.0 | 12.0 | 0.00 | 0.00 | 0.00 | 46 | 1012.6 |
| 20260504190525 | 50 | 278 | 5.0 | 9.0 | 0.00 | 0.00 | 0.00 | 46 | 1012.3 |
| 20260504190026 | 50 | 263 | 2.0 | 15.0 | 0.00 | 0.00 | 0.00 | 43 | 1012.2 |
| 20260504185524 | 50 | 203 | 6.0 | 15.0 | 0.00 | 0.00 | 0.00 | 41 | 1012.2 |
| 20260504185024 | 50 | 354 | 5.0 | 13.0 | 0.00 | 0.00 | 0.00 | 39 | 1012.0 |
| 20260504184525 | 51 | 311 | 8.0 | 17.0 | 0.00 | 0.00 | 0.00 | 38 | 1011.9 |
| 20260504184023 | 51 | 241 | 10.0 | 19.0 | 0.00 | 0.00 | 0.00 | 38 | 1011.9 |
| 20260504183524 | 52 | 300 | 5.0 | 14.0 | 0.00 | 0.00 | 0.00 | 42 | 1011.7 |
| 20260504183023 | 52 | 260 | 7.0 | 14.0 | 0.00 | 0.00 | 0.00 | 41 | 1011.8 |
| 20260504182521 | 52 | 331 | 6.0 | 15.0 | 0.00 | 0.00 | 0.00 | 42 | 1012.0 |
| 20260504182023 | 52 | 267 | 4.0 | 15.0 | 0.00 | 0.00 | 0.00 | 42 | 1012.0 |
| 20260504181521 | 52 | 264 | 8.0 | 19.0 | 0.00 | 0.00 | 0.00 | 42 | 1012.0 |
| 20260504181021 | 52 | 287 | 6.0 | 19.0 | 0.00 | 0.00 | 0.00 | 42 | 1012.0 |
| 20260504180519 | 52 | 316 | 5.0 | 14.0 | 0.00 | 0.00 | 0.00 | 42 | 1012.2 |
| 20260504180019 | 52 | 327 | 3.0 | 14.0 | 0.00 | 0.00 | 0.00 | 41 | 1012.3 |
| 20260504175518 | 52 | 295 | 6.0 | 14.0 | 0.00 | 0.00 | 0.00 | 40 | 1012.4 |
| 20260504175020 | 52 | 284 | 6.0 | 13.0 | 0.00 | 0.00 | 0.00 | 40 | 1012.5 |
| 20260504174516 | 52 | 257 | 5.0 | 13.0 | 0.00 | 0.00 | 0.00 | 40 | 1012.5 |
| 20260504174015 | 52 | 257 | 7.0 | 16.0 | 0.00 | 0.00 | 0.00 | 40 | 1012.7 |
| 20260504173515 | 52 | 231 | 9.0 | 16.0 | 0.00 | 0.00 | 0.00 | 40 | 1012.7 |
| 20260504173018 | 52 | 274 | 8.0 | 18.0 | 0.00 | 0.00 | 0.00 | 41 | 1012.9 |
| 20260504172513 | 51 | 314 | 8.0 | 18.0 | 0.00 | 0.00 | 0.00 | 41 | 1012.9 |
| 20260504172014 | 51 | 280 | 4.0 | 14.0 | 0.00 | 0.00 | 0.00 | 42 | 1013.1 |
| 20260504171517 | 51 | 296 | 8.0 | 14.0 | 0.00 | 0.00 | 0.00 | 40 | 1013.1 |
| 20260504171012 | 51 | 226 | 3.0 | 6.0 | 0.00 | 0.00 | 0.00 | 41 | 1013.1 |
| 20260504170511 | 51 | 308 | 1.0 | 14.0 | 0.00 | 0.00 | 0.00 | 42 | 1013.2 |
| 20260504160110 | 48 | 46 | 6.0 | 10.0 | 0.00 | 0.00 | 0.00 | 48 | 1013.4 |
| 20260504151050 | 41 | 326 | 0.0 | 3.0 | 0.00 | 0.00 | 0.00 | 64 | 1014.2 |
| 20260504150550 | 41 | 319 | 1.0 | 2.0 | 0.00 | 0.00 | 0.00 | 64 | 1014.2 |
| 20260504141039 | 39 | 263 | 1.0 | 4.0 | 0.00 | 0.00 | 0.00 | 63 | 1015.0 |
| 20260504140539 | 38 | 271 | 1.0 | 3.0 | 0.00 | 0.00 | 0.00 | 64 | 1014.9 |